User: anonymous
Location: Hickory_Viewmont
(35.7830°N, 81.3170°W)
Time: 03:24:40
(UTC-04:00)
Language:

Okean-O - Orbit

View from above orbital plane
View from above orbital plane
View from above satellite
View from above satellite

Ground track
Ground track

The orbit data is extracted from the following two-line orbital elements,

1 25860U 99039A   14258.85105366  .00000677  00000-0  10726-3 0  3527
2 25860 098.0538 222.2349 0001999 110.1968 304.0379 14.75388565815523
Epoch (UTC): 15 September 2014 20:25:31
Eccentricity: 0.0001999
inclination: 98.0538°
perigee height: 642 km
apogee height: 645 km
right ascension of ascending node: 222.2349°
argument of perigee: 110.1968°
revolutions per day: 14.75388565
mean anomaly at epoch: 304.0379°
orbit number at epoch: 81552

The dashed part of the orbit path shows where the satellite is in the earth's shadow,  

DLR